DateTimeUTC,F1_A11,F1_S11,BsB_S11,BsG_S11,BsR_S11,BbsB_S11,BbsG_S11,BbsR_S11,BaB_A11,BaG_A11,BaR_A11,Tu_S11,T_S11,Uu_S11,U_S11,P_S11,T1_A11
2021-05-07T17:00:00Z,00000200,21000000,,,,,,,0000.34,0000.08,-000.08,20.1,26.5,00.5,00.3,0673.8,31.2
2021-05-07T17:01:00Z,00000200,21000000,,,,,,,-000.21,-000.18,0000.10,20.1,26.5,00.3,00.2,0673.8,31.2
2021-05-07T17:02:00Z,00000200,21010000,,,,,,,0000.43,0000.17,-000.19,20.1,26.5,00.3,00.2,0673.8,31.2
2021-05-07T17:03:00Z,00000200,61000000,,,,,,,0000.91,0000.74,0000.86,20.1,26.5,00.3,00.2,0673.8,31.2
2021-05-07T17:04:00Z,00000200,41000000,0000.93,0000.94,0000.58,0000.48,0000.12,0000.10,0001.34,0001.43,0001.02,20.1,26.4,00.6,00.4,0674.7,31.2
2021-05-07T17:05:00Z,00000200,01000000,0001.75,0000.69,0000.38,-000.07,0000.21,0000.49,0001.45,0001.01,0000.94,20.2,26.4,00.7,00.5,0674.8,31.2
2021-05-07T17:06:00Z,00000200,01000000,0001.86,0000.82,0000.31,0000.59,0000.30,0000.04,0001.03,0001.21,0000.70,20.2,26.3,00.6,00.4,0674.7,31.2
2021-05-07T17:07:00Z,00000200,01000000,0001.25,0000.76,0000.43,0000.41,0000.15,0000.19,0001.05,0001.33,0000.99,20.2,26.3,00.7,00.5,0674.8,31.1
2021-05-07T17:08:00Z,00000200,01000000,0000.77,0000.23,0000.46,-000.18,0000.09,0000.16,0001.62,0001.22,0000.65,20.2,26.3,00.7,00.5,0674.8,31.2
2021-05-07T17:09:00Z,00000200,01000000,0000.98,0001.09,0000.61,0000.52,-000.05,0000.30,0001.13,0001.10,0001.20,20.2,26.3,00.7,00.5,0674.8,31.2
2021-05-07T17:10:00Z,00000200,01000000,0000.73,0000.90,0000.24,0000.63,0000.18,0000.23,0001.49,0001.20,0000.72,20.2,26.3,00.7,00.5,0674.8,31.2
2021-05-07T17:11:00Z,00000200,01000000,0001.08,0000.45,0000.50,0000.42,0000.18,0000.24,0000.67,0000.62,0000.38,20.2,26.3,00.7,00.5,0674.8,31.2
2021-05-07T17:12:00Z,00000200,01000000,0000.69,0000.44,0000.59,0000.08,0000.00,0000.24,0001.32,0001.14,0001.11,20.2,26.3,00.8,00.5,0674.8,31.2
2021-05-07T17:13:00Z,00000200,01000000,0001.68,0000.98,0000.55,0000.42,0000.23,0000.24,0001.89,0001.52,0000.78,20.2,26.4,00.9,00.6,0674.8,31.2
2021-05-07T17:14:00Z,00000200,01000000,0001.39,0001.05,0000.38,0000.60,0000.37,0000.31,0000.59,0000.67,0000.92,20.2,26.4,00.9,00.6,0674.7,31.2
2021-05-07T17:15:00Z,00000200,01000000,0000.87,0000.44,0000.37,-000.02,0000.30,0000.01,0001.04,0000.84,0000.58,20.2,26.3,00.9,00.6,0674.8,31.2
2021-05-07T17:16:00Z,00000200,01000000,0001.01,0000.81,0000.47,0000.60,0000.25,0000.11,0001.52,0001.34,0000.98,20.2,26.3,01.0,00.7,0674.8,31.2
2021-05-07T17:17:00Z,00000200,01000000,0001.12,0000.95,0000.64,-000.07,0000.14,-000.03,0001.31,0001.45,0000.67,20.2,26.3,01.1,00.8,0674.8,31.2
2021-05-07T17:18:00Z,00000200,01000000,0001.04,0000.75,0000.40,0000.47,0000.14,0000.00,0000.67,0000.53,0000.66,20.2,26.3,01.2,00.8,0674.7,31.2
2021-05-07T17:19:00Z,00000200,01000000,0001.12,0000.41,0000.42,0000.33,0000.28,0000.14,0001.25,0000.82,0000.79,20.2,26.3,01.3,00.9,0674.7,31.2
2021-05-07T17:20:00Z,00000200,01000000,0001.01,0000.57,0000.42,-000.05,0000.31,0000.14,0000.75,0000.98,0000.70,20.2,26.3,01.5,01.0,0674.8,31.2
2021-05-07T17:21:00Z,00000200,01000000,0000.73,0000.84,0000.49,0000.26,0000.63,0000.38,0000.81,0000.41,0000.36,20.1,26.3,01.5,01.0,0674.8,31.2
2021-05-07T17:22:00Z,00000200,01000000,0000.67,0000.89,0000.38,0000.42,-000.16,0000.09,0000.49,0000.49,0000.48,20.2,26.3,01.6,01.1,0674.8,31.2
2021-05-07T17:23:00Z,00000200,01000000,0001.48,0000.90,0000.20,0000.12,0000.48,-000.04,0000.69,0000.96,0000.45,20.2,26.3,01.6,01.1,0674.8,31.2
2021-05-07T17:24:00Z,00000200,01000000,0001.54,0000.91,0000.44,-000.05,0000.15,0000.30,0000.51,0000.14,0000.52,20.2,26.3,01.6,01.1,0674.8,31.2
2021-05-07T17:25:00Z,00000200,01000000,0000.92,0000.92,0000.30,0000.33,0000.39,0000.20,0000.56,0000.93,-000.03,20.2,26.3,01.4,01.0,0674.8,31.2
2021-05-07T17:26:00Z,00000200,01000000,0000.59,0000.86,0000.03,0000.31,0000.23,-000.14,0001.06,0000.58,0001.11,20.2,26.3,01.4,00.9,0674.8,31.2
2021-05-07T17:27:00Z,00000200,01000000,0001.67,0000.89,0000.52,0001.29,0000.06,0000.08,0000.85,0000.89,0000.32,20.2,26.3,01.4,01.0,0674.8,31.2
2021-05-07T17:28:00Z,00000200,01000000,0001.04,0000.42,0000.69,0000.30,0000.13,0000.39,0000.65,0000.61,0000.17,20.2,26.3,01.3,00.9,0674.8,31.2
2021-05-07T17:29:00Z,00000200,01000000,0001.30,0000.98,0000.48,0000.41,0000.10,0000.16,0001.15,0001.00,0000.78,20.2,26.3,01.0,00.7,0674.8,31.2
2021-05-07T17:30:00Z,00000200,01000000,0000.85,0001.13,0000.29,-000.10,0000.13,0000.13,0000.56,0000.57,0000.32,20.1,26.3,00.9,00.6,0674.8,31.2
2021-05-07T17:31:00Z,00000200,01000000,0001.49,0000.98,0000.21,-000.16,0000.15,0000.24,0001.19,0001.20,0001.40,20.1,26.3,00.7,00.5,0674.8,31.2
2021-05-07T17:32:00Z,00000200,01000000,0001.28,0000.77,0000.09,0000.05,0000.25,0000.04,0001.55,0001.23,0000.67,20.1,26.3,00.5,00.4,0674.9,31.2
2021-05-07T17:33:00Z,00000200,01000000,0001.27,0000.81,0000.09,0000.31,0000.26,0000.09,0001.47,0001.29,0001.22,20.1,26.3,00.6,00.4,0674.9,31.2
2021-05-07T17:34:00Z,00000200,01000000,0000.91,0000.89,0000.52,-000.23,0000.08,0000.46,0001.09,0001.10,0000.71,20.1,26.3,00.5,00.4,0674.9,31.2
2021-05-07T17:35:00Z,00000200,01000000,0000.69,0000.75,0000.15,0000.34,0000.13,0000.16,0001.24,0001.46,0001.00,20.1,26.3,00.5,00.4,0674.9,31.2
2021-05-07T17:36:00Z,00000200,01000000,0000.28,0000.61,0000.34,0000.46,-000.01,0000.00,0001.40,0001.15,0000.91,20.1,26.3,00.5,00.3,0674.9,31.2
2021-05-07T17:37:00Z,00000200,01000000,0000.57,0000.81,0000.17,0000.38,0000.12,-000.05,0001.38,0000.60,0000.60,20.1,26.3,00.6,00.4,0674.9,31.2
2021-05-07T17:38:00Z,00000200,01000000,0001.01,0000.90,0000.54,0000.06,-000.03,0000.50,0000.57,0001.18,0000.52,20.1,26.3,00.5,00.4,0674.9,31.2
2021-05-07T17:39:00Z,00000200,01000000,0001.11,0000.76,0000.47,-000.11,0000.23,0000.22,0000.93,0000.77,0000.48,20.1,26.3,00.6,00.4,0674.9,31.2
2021-05-07T17:40:00Z,00000200,01000000,0000.72,0000.76,0000.05,0000.29,0000.02,0000.15,0000.71,0000.40,0000.61,20.1,26.3,00.6,00.4,0674.9,31.2
2021-05-07T17:41:00Z,00000200,01000000,0000.49,0000.39,0000.60,0000.26,0000.12,-000.00,0001.09,0000.70,0000.30,20.1,26.3,00.5,00.4,0674.9,31.2
2021-05-07T17:42:00Z,00000200,01000000,0001.53,0000.38,0000.35,0000.44,0000.36,0000.12,0000.61,0000.68,0000.48,20.1,26.3,00.6,00.4,0674.9,31.2
2021-05-07T17:43:00Z,00000200,01000000,0000.93,0000.47,0000.20,0000.45,-000.02,0000.06,0000.72,0000.76,0000.86,20.1,26.3,00.6,00.4,0674.9,31.2
2021-05-07T17:44:00Z,00000200,01000000,0000.28,0000.27,0000.13,-000.08,0000.26,0000.06,0000.78,0000.91,0000.25,20.1,26.3,00.6,00.4,0674.9,31.2
2021-05-07T17:45:00Z,00000200,01000000,0000.72,0000.45,0000.40,0000.14,0000.01,-000.02,0001.26,0000.63,0001.22,20.1,26.3,00.6,00.4,0674.9,31.2
2021-05-07T17:46:00Z,00000200,01000000,0001.28,0000.76,0000.56,-000.01,0000.22,0000.39,0000.98,0000.97,0000.62,20.1,26.3,00.5,00.4,0674.9,31.2
2021-05-07T17:47:00Z,00000200,01000000,0000.99,0000.55,0000.12,0000.38,0000.04,0000.30,0001.25,0001.16,0000.57,20.0,26.3,00.7,00.5,0674.9,31.2
2021-05-07T17:48:00Z,00000200,01000000,0000.73,0000.70,0000.31,0000.31,0000.23,0000.11,0001.10,0001.14,0000.84,20.1,26.3,00.6,00.4,0674.9,31.2
2021-05-07T17:49:00Z,00000200,01000000,0001.48,0000.63,0000.59,0000.28,0000.32,0000.25,0001.11,0001.08,0000.67,20.1,26.3,00.6,00.4,0674.9,31.2
2021-05-07T17:50:00Z,00000200,01000000,0000.68,0000.61,0000.61,0000.43,0000.37,0000.23,0001.50,0001.02,0000.87,20.1,26.3,00.8,00.5,0674.9,31.2
2021-05-07T17:51:00Z,00000200,01000000,0000.77,0000.66,0000.30,0000.45,0000.35,0000.19,0000.56,0000.77,0000.44,20.1,26.3,00.7,00.5,0674.9,31.2
2021-05-07T17:52:00Z,00000200,01000000,0001.63,0000.58,0000.77,0000.12,0000.15,0000.43,0001.99,0001.33,0001.29,20.1,26.3,00.7,00.5,0674.9,31.2
2021-05-07T17:53:00Z,00000200,01000000,0002.33,0001.73,0000.98,0000.55,0000.45,0000.41,0004.80,0004.74,0003.54,20.1,26.3,01.1,00.8,0674.9,31.2
2021-05-07T17:54:00Z,00000200,01000000,0003.00,0001.39,0000.70,0000.45,0000.25,-000.06,0003.39,0002.89,0002.26,20.1,26.3,01.4,01.0,0674.9,31.2
2021-05-07T17:55:00Z,00000200,01000000,0001.99,0001.18,0000.57,0000.37,0000.12,0000.13,0004.08,0003.79,0002.96,20.1,26.3,01.5,01.0,0674.9,31.2
2021-05-07T17:56:00Z,00000200,01000000,0001.82,0001.02,0000.77,0000.67,0000.59,0000.33,0003.19,0002.86,0002.17,20.1,26.3,01.5,01.1,0674.9,31.2
2021-05-07T17:57:00Z,00000200,41000000,,,,,,,0000.43,0000.48,0000.08,20.1,26.3,01.9,01.3,0674.9,31.2
2021-05-07T17:58:00Z,00000200,60000000,,,,,,,0000.68,0000.35,0000.26,19.8,26.4,01.5,01.0,0673.9,31.2
2021-05-07T17:59:00Z,00000200,20000000,,,,,,,-000.10,0000.17,0000.28,19.8,26.5,01.5,01.0,0673.9,31.2
